Location: Home
(42.5358°N, 72.7383°W)
Time: 11:28:27
(UTC-05:00)

Explorer 7 - Pass Details

Date: 29 November 2021
Orbit: 483 x 674 km, 50.3° (Epoch: 21 January)

Event Time Altitude Azimuth Distance (km) Brightness Sun altitude
Rises 06:20:27 0° 211° (SSW) 2,802 10.3 -7.2°
Reaches altitude 10° 06:22:57 10° 202° (SSW) 1,869 9.6 -6.8°
Maximum altitude 06:26:44 32° 139° (SE) 958 8.9 -6.2°
Drops below altitude 10° 06:30:20 10° 75° (ENE) 1,775 10.3 -5.6°
Sets 06:32:39 0° 65° (ENE) 2,637 11.0 -5.2°
